Вернуться в каталог

FLOCK 4BE 24

АктивенНаукаSSO
NORAD 60505·PAYLOAD·🇺🇸 United States

Запущен Aug 16, 2024 с Vandenberg Space Force Base

Loading…

Ближайшие Пролёты (ближайшие 24 часа)

TLE

СвежийSource: CelesTrak SupGP

Эпоха: Sep 14, 2026, 18:45 UTC

1 60505C 24149AY  26257.78149306  .00040467  00000+0  81195-3 0  2570
2 60505  97.3663 343.4695 0002617 326.3855 160.9444 15.46683027    15

Отслеживайте FLOCK 4BE 24 в реальном времени с AllMySat

Download on the App Store